Epoch 2015 May 18.0 TT = JDT 2457160.5 T 2015 May 23.78567 TT MPCW q 0.7798764 (2000.0) P Q z -0.0004735 Peri. 257.45850 -0.69940303 -0.50694396 +/-0.0000009 Node 110.05822 -0.23812565 +0.82992654 e 1.0003692 Incl. 147.56369 -0.67389285 +0.23287284 From 482 observations 2015 Apr. 8-2016 Feb. 5, mean residual 0".6.
m1 = 8.5 + 5 log d + 12.0 log r